Vertical_Velocity
0 1 -3 -1 -2 -1 -2 -0 -0 -1 1 1 -5 1 -7 -3 -1 -3 -1 -1 0 -2 -2 2 -0 -5 -5 5 -2 -6 -2 -3 -1 -0 -1 -5 -3 -4 -4 -3 -5 -5 -3 -3
-1 -0 -1 -1 -1 -2 -2 -1 -5 -1 -1 -3 -3 3 -0 1 -2 -0 -1 2 0 -1 -2 -7 -2 -1 -8 -1 -1 -6 -4 -3 -6 -7 -5 -5 -6 -4 -3 -1 -2 -3 -2 -3
-2 1 -0 -2 -1 -2 -2 -3 -3 -2 -2 -4 0 3 5 1 -3 -1 -3 -2 -3 -2 -2 -2 -5 -3 -0 -3 -3 -4 -6 -9 -9 -8 -6 -5 -5 -4 -4 -5 -4 -4 -2 -2
-3 5 3 1 2 -1 -1 -4 -2 -2 -3 -5 6 -8 3 -3 1 -4 -0 0 1 0 1 -1 -2 -1 -2 -5 -3 -2 -3 -5 -2 -5 -3 -3 -1 -2 -4 -1 2 -3 1 -0
-2 -3 0 3 2 -0 -0 -1 -0 0 -3 -5 3 -5 8 4 1 2 1 -3 -7 -1 -3 -2 -3 -4 -3 -2 -1 -0 1 -3 -2 -3 -3 -5 -1 -1 -2 -2 1 3 -5 -3
-1 -2 -3 -0 -3 1 1 1 -4 -5 -2 -2 -2 -5 18 8 4 3 1 2 -2 2 -1 3 1 1 3 1 -0 0 -1 -2 -3 -4 -2 -4 -2 -3 -6 -3 -1 -3 0 -4
-0 1 -1 2 -3 -1 -2 -2 -6 -7 -3 -5 1 -11 22 -1 6 5 0 3 0 1 -2 -2 -3 -2 -1 -1 -0 -1 -3 -3 -4 -5 -4 -0 -3 2 -1 -1 0 3 4 3
-4 2 -0 7 3 -1 1 1 0 -18 -9 -5 -3 -15 5 5 1 2 -3 5 -1 -2 0 -3 -2 -2 -3 -1 -4 -3 -5 -5 -6 -2 -4 -4 -2 1 -0 -0 -1 -2 1 -0
-8 -5 1 2 4 4 9 7 8 -6 -5 -17 -2 -2 -6 2 0 -5 -0 1 -0 -3 -2 -2 -0 -3 1 -2 -3 -3 -2 -3 -5 -2 -3 -4 -4 -6 -1 5 5 1 2 -2
-10 -20 6 0 -1 2 -1 7 0 2 -14 -18 1 -15 -2 2 -3 -1 -2 -7 -2 -3 -3 -1 -3 -2 -2 1 -2 -3 -4 -5 -2 1 -4 -1 1 -3 -5 -5 -2 3 6 2
3 -4 -0 0 12 11 -3 -2 -0 6 -3 -9 -16 -1 3 4 -2 -5 -6 -9 -1 -4 -3 -4 -1 -3 -3 -4 -4 -2 -3 -3 3 2 1 -1 -1 -0 -5 -4 -2 5 3 2
7 -19 -11 1 1 2 4 1 8 -3 1 -7 -4 -40 6 9 4 3 -2 -6 -3 -3 -8 -1 -3 -5 -4 -3 -1 -3 -2 -8 -6 1 2 5 5 -2 -5 -5 -0 4 0 5
17 -27 -15 -10 -0 9 -3 13 6 9 -1 2 -8 -3 9 1 3 3 -0 3 -4 -6 3 -1 -3 2 -1 0 -0 -1 -1 -3 -3 -2 -1 1 4 -0 -1 -2 1 1 -1 3
26 -16 -10 -25 8 9 -24 4 13 5 -22 23 -14 -4 2 0 0 -2 -4 -4 -10 -7 -3 -3 -4 -2 3 3 -2 -4 -1 -1 -2 -2 -0 -4 0 2 -1 2 2 -1 2 8
12 -1 10 -8 13 -6 -10 -6 -1 -9 21 -25 33 -34 26 10 -3 -3 -9 -11 -4 -2 -11 -6 -3 -5 -6 -2 0 -7 -7 -3 1 1 1 1 1 2 -4 -1 -0 3 2 2
-4 -27 6 -33 22 6 -16 -5 7 -7 -2 -10 10 -16 -6 17 13 1 -2 -2 1 -1 -3 -2 -6 -10 -15 0 0 -3 -3 -6 -4 1 1 2 -1 -2 -1 -0 9 12 2 7
4 -0 2 -29 -4 12 -38 -3 0 2 4 16 -18 24 9 4 1 1 1 2 2 0 -3 4 -1 -5 -6 -2 2 -0 3 -0 -9 -2 -3 0 -1 -2 -0 3 6 1 -0 1
3 16 10 -3 6 -13 11 -11 7 1 -1 8 -9 11 8 3 7 3 2 0 -5 3 -1 -4 4 -1 1 0 3 1 -6 1 -2 0 1 -0 1 1 -3 2 4 7 5 2
9 14 7 -0 9 5 -22 9 2 1 -12 10 -3 8 4 3 -14 8 12 -0 2 -1 -2 0 1 -7 -2 -1 1 2 -0 -2 -2 -3 -0 -3 0 -0 -1 3 14 2 4 2
9 6 19 16 7 -6 -18 15 14 -1 -50 34 -2 -9 -4 -3 -19 12 -9 2 2 4 1 0 -2 -4 -3 1 2 1 3 -4 -3 -0 -4 -1 1 -1 -0 2 8 6 0 0
5 3 -6 4 14 -7 -2 7 6 -6 11 -4 -1 3 1 0 0 -1 -0 -5 -4 -3 -2 -0 -2 1 -2 -4 -1 1 -6 -4 -3 2 -5 2 -1 -0 2 1 1 6 5 2
2 7 1 2 5 2 7 -0 1 9 -6 -5 -1 -3 -3 4 -1 -3 -5 -3 0 2 3 5 -1 4 2 -1 -1 -3 -3 -1 -1 2 -2 1 -3 -2 1 3 1 1 3 7
-8 3 -3 -3 0 6 4 -5 -2 -1 1 1 -7 -5 -8 -3 1 -4 -2 1 5 6 5 2 2 5 3 -1 -2 -3 -1 -3 -1 1 -0 -1 -2 -1 0 1 2 1 2 4
11 0 0 2 2 -2 -3 11 7 12 2 8 -0 -3 -1 -2 -4 -1 -0 -1 0 2 7 2 3 2 4 -3 -1 -1 -1 -3 1 1 -1 -2 -1 -0 -0 1 1 5 3 2
6 -1 13 3 -7 15 13 8 9 9 10 10 8 0 -2 -2 4 -5 -2 -2 0 0 -6 2 -0 -0 -3 3 -2 -1 2 -0 0 -1 -2 -1 -0 -1 2 -1 -0 3 2 0
7 3 1 -20 10 -0 3 15 10 0 5 -0 2 2 0 3 1 3 7 4 5 -0 -3 1 1 -4 -1 1 -1 -0 2 0 1 -0 -2 -1 0 0 -0 0 -2 1 3 4
Height
5833 5834 5833 5832 5832 5832 5832 5832 5832 5831 5831 5830 5827 5829 5826 5825 5825 5823 5821 5820 5818 5816 5814 5814 5812 5809 5807 5805 5801 5797 5794 5788 5783 5779 5775 5772 5768 5765 5760 5756 5751 5747 5744 5742
5828 5827 5828 5827 5827 5826 5826 5826 5825 5825 5824 5824 5823 5824 5821 5819 5818 5816 5815 5814 5812 5811 5810 5807 5805 5803 5800 5798 5793 5789 5785 5780 5776 5772 5767 5764 5759 5755 5749 5745 5741 5737 5734 5731
5820 5821 5822 5822 5821 5820 5819 5818 5817 5818 5817 5816 5815 5816 5815 5812 5811 5810 5809 5808 5807 5805 5803 5801 5797 5794 5791 5789 5786 5781 5776 5772 5768 5763 5759 5754 5748 5743 5739 5734 5730 5727 5724 5721
5813 5813 5813 5814 5814 5813 5813 5811 5809 5809 5809 5808 5807 5806 5808 5807 5806 5805 5805 5803 5801 5798 5795 5792 5789 5785 5782 5779 5776 5773 5767 5762 5758 5752 5748 5744 5739 5733 5727 5723 5719 5716 5713 5710
5809 5807 5805 5804 5803 5803 5803 5802 5801 5800 5799 5799 5800 5795 5803 5801 5800 5798 5796 5793 5791 5788 5784 5781 5778 5775 5772 5767 5764 5760 5756 5751 5746 5740 5737 5733 5727 5722 5716 5712 5708 5705 5702 5700
5800 5799 5800 5800 5797 5795 5793 5792 5792 5790 5789 5789 5791 5788 5790 5790 5789 5787 5784 5781 5778 5776 5772 5769 5766 5763 5759 5755 5752 5748 5743 5738 5733 5728 5724 5719 5715 5709 5704 5700 5696 5694 5691 5689
5790 5790 5791 5790 5790 5789 5788 5785 5782 5780 5779 5777 5778 5776 5780 5776 5776 5776 5772 5769 5767 5764 5761 5758 5755 5751 5748 5743 5738 5734 5729 5724 5719 5714 5710 5706 5701 5696 5691 5687 5684 5682 5680 5678
5779 5780 5780 5780 5780 5778 5777 5777 5778 5769 5767 5766 5764 5762 5765 5765 5764 5763 5761 5759 5755 5752 5748 5746 5742 5739 5735 5730 5726 5721 5715 5710 5704 5699 5695 5691 5688 5683 5678 5674 5671 5669 5668 5665
5767 5766 5770 5768 5766 5766 5765 5765 5766 5760 5759 5755 5752 5752 5751 5751 5751 5749 5749 5746 5742 5738 5735 5732 5728 5725 5720 5716 5711 5704 5699 5693 5688 5683 5679 5675 5671 5668 5665 5661 5658 5657 5655 5653
5755 5753 5753 5753 5753 5754 5755 5752 5750 5750 5747 5741 5742 5741 5739 5739 5738 5737 5735 5733 5730 5726 5723 5718 5714 5710 5705 5700 5696 5690 5684 5679 5674 5669 5664 5659 5655 5651 5649 5647 5646 5644 5642 5641
5743 5742 5740 5739 5741 5743 5739 5737 5740 5740 5734 5731 5728 5726 5729 5727 5725 5723 5720 5718 5714 5712 5708 5705 5701 5696 5692 5687 5682 5674 5668 5663 5659 5654 5648 5644 5640 5636 5633 5632 5631 5631 5630 5630
5729 5726 5726 5728 5725 5725 5725 5728 5727 5722 5722 5718 5714 5715 5719 5715 5713 5709 5707 5704 5702 5697 5693 5690 5686 5680 5675 5671 5665 5659 5652 5645 5641 5636 5632 5627 5624 5621 5619 5618 5617 5618 5618 5618
5715 5708 5711 5710 5711 5713 5715 5714 5711 5709 5705 5704 5701 5701 5704 5699 5695 5692 5689 5687 5683 5680 5677 5674 5669 5664 5658 5653 5646 5641 5636 5629 5625 5621 5617 5613 5610 5607 5605 5605 5605 5606 5606 5606
5696 5690 5692 5696 5700 5699 5695 5696 5697 5694 5688 5692 5684 5690 5687 5685 5681 5678 5673 5669 5665 5661 5659 5654 5648 5642 5638 5634 5630 5626 5621 5616 5610 5605 5602 5599 5597 5594 5594 5593 5594 5593 5592 5594
5679 5673 5675 5680 5682 5681 5681 5682 5681 5673 5677 5670 5681 5671 5672 5670 5663 5659 5655 5653 5648 5645 5639 5635 5630 5625 5620 5614 5611 5607 5603 5599 5596 5591 5589 5586 5584 5583 5581 5582 5580 5580 5579 5581
5660 5656 5658 5657 5666 5659 5658 5665 5661 5660 5660 5654 5657 5657 5654 5652 5646 5642 5637 5632 5631 5628 5622 5617 5612 5609 5606 5602 5597 5592 5588 5585 5583 5580 5577 5574 5573 5572 5571 5570 5571 5570 5572 5572
5643 5640 5638 5634 5642 5638 5634 5644 5642 5639 5639 5639 5633 5645 5634 5632 5630 5626 5618 5616 5615 5609 5607 5602 5596 5591 5587 5586 5583 5578 5576 5570 5569 5567 5565 5564 5562 5561 5561 5561 5562 5562 5563 5565
5625 5623 5620 5617 5621 5613 5620 5623 5621 5618 5622 5617 5615 5618 5613 5613 5611 5604 5600 5600 5593 5590 5585 5582 5578 5575 5573 5570 5567 5563 5562 5560 5558 5557 5555 5553 5552 5551 5552 5553 5553 5554 5555 5556
5607 5605 5598 5596 5595 5594 5599 5603 5602 5596 5601 5598 5595 5599 5598 5591 5588 5589 5584 5578 5577 5572 5569 5565 5562 5561 5559 5557 5555 5552 5550 5549 5548 5546 5544 5543 5542 5541 5542 5544 5545 5545 5547 5548
5589 5588 5583 5580 5572 5571 5580 5586 5581 5575 5576 5583 5580 5577 5573 5568 5564 5571 5561 5562 5559 5557 5554 5552 5549 5547 5546 5546 5544 5542 5540 5539 5537 5535 5533 5532 5532 5532 5532 5533 5535 5536 5537 5540
5565 5562 5561 5562 5553 5550 5560 5564 5557 5553 5566 5561 5558 5561 5559 5555 5552 5553 5549 5547 5545 5543 5541 5539 5537 5536 5535 5535 5535 5533 5532 5529 5527 5525 5523 5522 5522 5521 5522 5523 5524 5527 5529 5531
5540 5539 5540 5540 5537 5535 5538 5539 5537 5537 5533 5536 5538 5538 5540 5539 5537 5535 5534 5534 5533 5531 5530 5528 5527 5526 5524 5524 5525 5523 5522 5520 5518 5515 5514 5514 5513 5512 5512 5513 5515 5517 5521 5523
5525 5525 5523 5524 5521 5519 5520 5518 5519 5519 5517 5517 5518 5520 5521 5524 5522 5520 5520 5521 5521 5520 5518 5517 5517 5516 5514 5515 5514 5513 5512 5510 5508 5506 5506 5506 5505 5504 5503 5504 5506 5509 5512 5515
5510 5510 5505 5505 5508 5509 5507 5505 5505 5506 5506 5505 5505 5505 5505 5507 5508 5510 5510 5510 5509 5509 5508 5506 5507 5506 5505 5503 5503 5502 5501 5500 5499 5498 5498 5497 5497 5497 5496 5496 5498 5501 5503 5506
5498 5489 5491 5487 5491 5494 5492 5492 5493 5493 5494 5494 5494 5494 5495 5496 5497 5497 5498 5498 5497 5497 5498 5497 5496 5495 5494 5492 5491 5491 5490 5490 5489 5489 5488 5489 5489 5489 5489 5489 5490 5493 5495 5499
5480 5478 5471 5471 5479 5473 5482 5478 5476 5478 5480 5480 5482 5483 5483 5485 5485 5486 5486 5486 5486 5486 5486 5486 5484 5483 5482 5481 5481 5481 5481 5480 5480 5480 5479 5479 5479 5480 5481 5482 5482 5485 5488 5492